This is the latest recevied weather packets stored in our database for station/object W4GAP. If no packets are shown the sender has not sent any weather packets the latest 10 day(s).
| Time | Temp. | Humidity | Pressure | Rain* | Wind** | Luminosity | Snow |
|---|---|---|---|---|---|---|---|
| 1777877158 | 10.56° C | 74% | 1015 hPa | 0 mm | - | 0 W/m² | - |
| 1777876855 | 10.56° C | 74% | 1015 hPa | 0 mm | - | 0 W/m² | - |
| 1777876553 | 10.56° C | 75% | 1015 hPa | 0 mm | - | 0 W/m² | - |
| 1777876250 | 10.56° C | 75% | 1015 hPa | 0 mm | - | 0 W/m² | - |
| 1777875946 | 10.56° C | 74% | 1015 hPa | 0 mm | - | 0 W/m² | - |
| 1777875643 | 10.56° C | 74% | 1014.9 hPa | 0 mm | - | 0 W/m² | - |
| 1777875339 | 10.56° C | 76% | 1015.1 hPa | 0 mm | - | 0 W/m² | - |
| 1777875036 | 10.56° C | 75% | 1015 hPa | 0 mm | - | 0 W/m² | - |
| 1777874732 | 10.56° C | 75% | 1015 hPa | 0 mm | - | 0 W/m² | - |
| 1777874428 | 10.56° C | 75% | 1015.1 hPa | 0 mm | - | 0 W/m² | - |
| 1777874126 | 10.56° C | 76% | 1015.1 hPa | 0 mm | - | 0 W/m² | - |
| 1777873824 | 11.11° C | 76% | 1015.1 hPa | 0 mm | - | 0 W/m² | - |
| 1777873520 | 11.11° C | 75% | 1015.1 hPa | 0 mm | - | 0 W/m² | - |
| 1777873218 | 11.67° C | 74% | 1015.2 hPa | 0 mm | - | 0 W/m² | - |
| 1777872914 | 11.67° C | 72% | 1015 hPa | 0 mm | - | 0 W/m² | - |
| 1777872612 | 11.67° C | 73% | 1015 hPa | 0 mm | - | 0 W/m² | - |
| 1777872309 | 11.67° C | 72% | 1015.3 hPa | 0 mm | - | 0 W/m² | - |
| 1777872007 | 12.22° C | 70% | 1015.3 hPa | 0 mm | - | 0 W/m² | - |
| 1777871703 | 12.22° C | 67% | 1015.3 hPa | 0 mm | - | 0 W/m² | - |
| 1777871399 | 12.78° C | 67% | 1015.3 hPa | 0 mm | - | 0 W/m² | - |
| 1777871097 | 12.78° C | 63% | 1015.2 hPa | 0 mm | - | 0 W/m² | - |
| 1777870794 | 12.78° C | 64% | 1015.2 hPa | 0 mm | - | 0 W/m² | - |
| 1777870489 | 12.78° C | 62% | 1015.1 hPa | 0 mm | - | 0 W/m² | - |
| 1777870186 | 12.78° C | 63% | 1015.1 hPa | 0 mm | - | 0 W/m² | - |
| 1777869883 | 12.78° C | 61% | 1015.1 hPa | 0 mm | - | 0 W/m² | - |
* Rain latest hour (hover to see other rain measurements)
** Current wind speed in m/s (hover to see current wind gust speed)